Latest Coastal Weather Observations for Flinders Reef

IDQ60701

Issued at 7:21 pm EST Friday 6 May 2016 (issued every 10 minutes, with the page automatically refreshed every 10 minutes)

About coastal observations | Map of coastal stations | Coastal observations for QLD | Marine services | Other Formats
Station Details ID: 200783 Name: FLINDERS REEF Lat: -17.72 Lon: 148.45 Height: 2.6 m
Data from the previous 72 hours. | See also: Recent months at Flinders Reef
Date/Time
EST
Temp

°C
Wind Pressure Rain
since 9am
mm
Weather Cloud Vis
km
Sea
Height
m
Swell
Dir
 
Speed
knots
Gust
knots
hPa Trend Height
m
Period
s
Dir
06/07:00pm 26.8 SE 15 17 1014.1 - - - - - - - - -
06/06:30pm 26.8 SE 14 17 1013.9 - - - - - - - - -
06/06:24pm 27.0 SE 15 - 1013.7 - - - - - - - - -
06/06:00pm 26.8 ESE 16 18 1013.4 - - - - - - - - -
06/05:30pm 26.9 ESE 15 17 1013.0 - - - - - - - - -
06/05:24pm 26.9 ESE 15 - 1012.9 - - - - - - - - -
06/05:00pm 27.2 ESE 13 15 1012.8 - - - - - - - - -
06/04:30pm 27.3 ESE 13 14 1012.7 - - - - - - - - -
06/04:24pm 27.2 ESE 13 - 1012.6 - - - - - - - - -
06/04:00pm 27.4 SE 12 14 1012.6 - - - - - - - - -
06/03:30pm 27.2 ESE 13 16 1012.6 - - - - - - - - -
06/03:24pm 27.1 ESE 12 - 1012.5 - - - - - - - - -
06/03:00pm 27.4 ESE 13 15 1012.7 - - - - - - - - -
06/02:30pm 27.3 E 12 14 1012.8 - - - - - - - - -
06/02:24pm 27.0 E 12 - 1012.7 - - - - - - - - -
06/02:00pm 26.8 E 13 14 1012.9 - - - - - - - - -
06/01:30pm 27.0 E 12 14 1013.2 - - - - - - - - -
06/01:24pm 27.3 E 12 - 1013.3 - - - - - - - - -
06/01:00pm 27.2 E 13 15 1013.8 - - - - - - - - -
06/12:30pm 27.1 E 14 15 1013.9 - - - - - - - - -
06/12:24pm 27.1 E 14 - 1014.0 - - - - - - - - -
06/12:00pm 27.1 E 13 15 1014.4 - - - - - - - - -
06/11:30am 27.2 E 12 14 1014.8 - - - - - - - - -
06/11:24am 27.3 E 12 - 1014.8 - - - - - - - - -
06/11:00am 27.0 E 12 14 1015.2 - - - - - - - - -
06/10:30am 27.2 E 14 16 1015.6 - - - - - - - - -
06/10:24am 27.0 E 14 - 1015.5 - - - - - - - - -
06/10:00am 27.2 E 15 16 1015.8 - - - - - - - - -
06/09:30am 27.1 E 13 14 1015.9 - - - - - - - - -
06/09:24am 27.3 E 13 - 1015.7 - - - - - - - - -
06/09:00am 27.1 E 12 15 1015.7 - - - - - - - - -
06/08:30am 27.1 E 14 15 1015.4 - - - - - - - - -
06/08:24am 27.0 E 13 - 1015.3 - - - - - - - - -
06/08:00am 27.0 E 13 15 1015.3 - - - - - - - - -
06/07:30am 27.0 ESE 13 15 1014.9 - - - - - - - - -
06/07:24am 26.9 ESE 12 - 1014.6 - - - - - - - - -
06/07:00am 26.7 E 13 15 1014.4 - - - - - - - - -
06/06:30am 26.5 E 12 14 1014.0 - - - - - - - - -
06/06:24am 26.6 E 12 - 1013.9 - - - - - - - - -
06/06:00am 26.6 E 13 15 1013.8 - - - - - - - - -
06/05:30am 26.6 E 14 16 1013.3 - - - - - - - - -
06/05:24am 26.6 E 14 - 1013.2 - - - - - - - - -
06/05:00am 26.6 E 14 16 1013.1 - - - - - - - - -
06/04:30am 26.7 E 15 17 1013.1 - - - - - - - - -
06/04:24am 26.6 E 14 - 1013.0 - - - - - - - - -
06/04:00am 26.6 E 14 17 1013.3 - - - - - - - - -
06/03:30am 26.4 E 14 17 1013.3 - - - - - - - - -
06/03:24am 26.6 E 14 - 1013.2 - - - - - - - - -
06/03:00am 26.6 E 14 16 1013.3 - - - - - - - - -
06/02:30am 26.6 E 14 16 1013.6 - - - - - - - - -
06/02:24am 26.8 E 14 - 1013.5 - - - - - - - - -
06/02:00am 26.8 E 14 15 1014.0 - - - - - - - - -
06/01:30am 26.4 E 13 16 1014.2 - - - - - - - - -
06/01:24am 26.7 E 13 - 1014.2 - - - - - - - - -
06/01:00am 26.8 E 14 16 1014.5 - - - - - - - - -
06/12:30am 26.4 E 15 17 1014.6 - - - - - - - - -
06/12:24am 26.8 ESE 14 - 1014.6 - - - - - - - - -
06/12:00am 26.7 ESE 14 16 1014.9 - - - - - - - - -
 
Date/Time
EST
Temp

°C
Wind Pressure Rain
since 9am
mm
Weather Cloud Vis
km
Sea
Height
m
Swell
Dir
 
Speed
knots
Gust
knots
hPa Trend Height
m
Period
s
Dir
05/11:30pm 27.0 ESE 14 16 1015.1 - - - - - - - - -
05/11:24pm 26.9 E 14 - 1015.1 - - - - - - - - -
05/11:00pm 26.9 E 14 17 1015.2 - - - - - - - - -
05/10:30pm 26.9 E 16 18 1015.4 - - - - - - - - -
05/10:24pm 26.7 ESE 15 - 1015.3 - - - - - - - - -
05/10:00pm 26.7 ESE 16 18 1015.6 - - - - - - - - -
05/09:30pm 26.7 ESE 14 18 1015.7 - - - - - - - - -
05/09:24pm 27.1 ESE 14 - 1015.6 - - - - - - - - -
05/09:00pm 27.1 ESE 14 16 1015.9 - - - - - - - - -
05/08:30pm 27.1 ESE 15 17 1015.8 - - - - - - - - -
05/08:24pm 27.2 E 15 - 1015.6 - - - - - - - - -
05/08:00pm 27.5 ESE 15 17 1015.4 - - - - - - - - -
05/07:30pm 26.6 ESE 14 17 1015.1 - - - - - - - - -
05/07:24pm 26.9 ESE 15 - 1014.9 - - - - - - - - -
05/07:00pm 26.9 ESE 14 16 1014.8 - - - - - - - - -
05/06:30pm 26.9 ESE 14 16 1014.4 - - - - - - - - -
05/06:24pm 27.0 E 14 - 1014.2 - - - - - - - - -
05/06:00pm 26.8 E 14 17 1013.9 - - - - - - - - -
05/05:30pm 27.0 E 13 15 1013.7 - - - - - - - - -
05/05:24pm 27.0 E 14 - 1013.5 - - - - - - - - -
05/05:00pm 27.1 ESE 13 15 1013.4 - - - - - - - - -
05/04:30pm 27.1 ESE 13 15 1013.2 - - - - - - - - -
05/04:24pm 27.3 ESE 13 - 1013.1 - - - - - - - - -
05/04:00pm 27.1 ESE 12 14 1013.1 - - - - - - - - -
05/03:30pm 27.1 ESE 12 14 1013.1 - - - - - - - - -
05/03:24pm 27.4 ESE 12 - 1013.0 - - - - - - - - -
05/03:00pm 27.1 E 12 14 1013.0 - - - - - - - - -
05/02:30pm 27.5 ESE 12 14 1013.1 - - - - - - - - -
05/02:24pm 27.1 ESE 12 - 1013.1 - - - - - - - - -
05/02:00pm 27.1 ESE 12 13 1013.4 - - - - - - - - -
05/01:30pm 27.1 ESE 11 13 1013.7 - - - - - - - - -
05/01:24pm 27.0 ESE 11 - 1013.7 - - - - - - - - -
05/01:00pm 27.3 ESE 10 12 1014.2 - - - - - - - - -
05/12:30pm 27.1 ESE 10 12 1014.6 - - - - - - - - -
05/12:24pm 27.1 ESE 10 - 1014.6 - - - - - - - - -
05/12:00pm 26.9 ESE 11 13 1014.8 - - - - - - - - -
05/11:30am 27.3 ESE 11 12 1015.3 - - - - - - - - -
05/11:24am 27.1 ESE 11 - 1015.2 - - - - - - - - -
05/11:00am 27.1 E 11 13 1015.7 - - - - - - - - -
05/10:30am 27.2 E 12 14 1015.9 - - - - - - - - -
05/10:24am 26.9 E 12 - 1015.9 - - - - - - - - -
05/10:00am 27.1 E 12 14 1016.0 - - - - - - - - -
05/09:30am 27.2 E 13 15 1016.1 - - - - - - - - -
05/09:24am 27.0 ESE 13 - 1016.0 - - - - - - - - -
05/09:00am 27.1 E 13 15 1016.2 - - - - - - - - -
05/08:30am 26.9 E 13 15 1015.9 - - - - - - - - -
05/08:24am 27.4 E 13 - 1015.8 - - - - - - - - -
05/08:00am 27.1 E 14 16 1015.6 - - - - - - - - -
05/07:30am 26.8 E 14 16 1015.3 - - - - - - - - -
05/07:24am 27.1 E 14 - 1015.0 - - - - - - - - -
05/07:00am 26.9 E 14 16 1014.9 - - - - - - - - -
05/06:30am 26.7 E 14 16 1014.6 - - - - - - - - -
05/06:24am 26.5 E 14 - 1014.5 - - - - - - - - -
05/06:00am 26.7 E 13 15 1014.3 - - - - - - - - -
05/05:30am 26.7 E 13 15 1014.3 - - - - - - - - -
05/05:24am 26.7 E 13 - 1014.2 - - - - - - - - -
05/05:00am 26.8 E 13 15 1014.0 - - - - - - - - -
05/04:30am 26.6 E 14 16 1013.8 - - - - - - - - -
05/04:24am 26.6 E 14 - 1013.7 - - - - - - - - -
05/04:00am 26.7 E 14 16 1013.8 - - - - - - - - -
05/03:30am 26.6 E 13 15 1013.7 - - - - - - - - -
05/03:24am 26.6 ESE 13 - 1013.7 - - - - - - - - -
05/03:00am 26.9 E 14 17 1013.7 - - - - - - - - -
05/02:30am 26.6 ESE 14 16 1013.9 - - - - - - - - -
05/02:24am 26.4 ESE 14 - 1014.0 - - - - - - - - -
05/02:00am 26.8 E 14 16 1014.1 - - - - - - - - -
05/01:30am 26.6 E 15 17 1014.2 - - - - - - - - -
05/01:24am 26.8 ESE 16 - 1014.3 - - - - - - - - -
05/01:00am 26.6 E 15 18 1014.5 - - - - - - - - -
05/12:30am 26.8 E 15 18 1014.7 - - - - - - - - -
05/12:24am 27.0 ESE 15 - 1014.6 - - - - - - - - -
05/12:00am 26.9 ESE 14 16 1015.0 - - - - - - - - -
 
Date/Time
EST
Temp

°C
Wind Pressure Rain
since 9am
mm
Weather Cloud Vis
km
Sea
Height
m
Swell
Dir
 
Speed
knots
Gust
knots
hPa Trend Height
m
Period
s
Dir
04/11:30pm 26.6 ESE 15 17 1015.3 - - - - - - - - -
04/11:24pm 27.0 ESE 15 - 1015.3 - - - - - - - - -
04/11:00pm 26.8 ESE 16 17 1015.4 - - - - - - - - -
04/10:30pm 26.6 ESE 15 17 1015.5 - - - - - - - - -
04/10:24pm 26.8 ESE 15 - 1015.4 - - - - - - - - -
04/10:00pm 26.9 ESE 14 16 1015.5 - - - - - - - - -
04/09:30pm 26.8 ESE 13 15 1015.6 - - - - - - - - -
04/09:24pm 26.8 ESE 13 - 1015.6 - - - - - - - - -
04/09:00pm 27.1 ESE 13 15 1015.8 - - - - - - - - -
04/08:30pm 27.1 SE 14 16 1015.4 - - - - - - - - -
04/08:24pm 26.8 SE 1 - 1015.2 - - - - - - - - -
04/08:00pm 27.0 SE 13 15 1015.1 - - - - - - - - -
04/07:30pm 26.9 SE 14 16 1014.7 - - - - - - - - -
04/07:24pm 26.9 SE 14 - 1014.5 - - - - - - - - -
04/07:00pm 27.0 ESE 13 15 1014.3 - - - - - - - - -
04/06:30pm 27.1 SE 12 13 1014.0 - - - - - - - - -
04/06:24pm 26.9 SSE 11 - 1013.8 - - - - - - - - -
04/06:00pm 26.9 SSE 11 12 1013.6 - - - - - - - - -
04/05:30pm 27.0 ESE 9 11 1013.2 - - - - - - - - -
04/05:24pm 27.2 ESE 9 - 1012.9 - - - - - - - - -
04/05:00pm 27.2 ESE 8 10 1012.7 - - - - - - - - -
04/04:30pm 27.1 ESE 8 9 1012.4 - - - - - - - - -
04/04:24pm 27.0 ESE 8 - 1012.3 - - - - - - - - -
04/04:00pm 27.4 ESE 7 9 1012.5 - - - - - - - - -
04/03:30pm 27.1 ESE 8 10 1012.2 - - - - - - - - -
04/03:24pm 27.0 ESE 8 - 1012.1 - - - - - - - - -
04/03:00pm 27.5 SE 8 9 1012.2 - - - - - - - - -
04/02:30pm 27.3 ESE 7 8 1012.5 - - - - - - - - -
04/02:24pm 27.3 ESE 8 - 1012.4 - - - - - - - - -
04/02:00pm 27.2 SE 8 9 1012.7 - - - - - - - - -
04/01:30pm 27.5 SE 8 11 1013.0 - - - - - - - - -
04/01:24pm 27.3 SE 8 - 1012.9 - - - - - - - - -
04/01:00pm 27.4 SE 1 2 1013.2 - - - - - - - - -
04/12:30pm 27.4 CALM 0 2 1013.7 - - - - - - - - -
04/12:24pm 27.2 CALM 0 - 1013.7 - - - - - - - - -
04/12:00pm 27.4 CALM 0 2 1014.2 - - - - - - - - -
04/11:30am 27.2 CALM 0 2 1014.5 - - - - - - - - -
04/11:24am 27.3 SE 1 - 1014.5 - - - - - - - - -
04/11:00am 27.2 SE 8 10 1014.9 - - - - - - - - -
04/10:30am 27.3 SE 8 9 1015.2 - - - - - - - - -
04/10:24am 27.0 SE 8 - 1015.1 - - - - - - - - -
04/10:00am 27.2 SE 8 10 1015.5 - - - - - - - - -
04/09:30am 27.3 E 8 9 1015.5 - - - - - - - - -
04/09:24am 27.2 E 8 - 1015.4 - - - - - - - - -
04/09:00am 27.0 E 9 10 1015.4 - - - - - - - - -
04/08:30am 26.9 E 9 11 1015.2 - - - - - - - - -
04/08:24am 26.9 E 9 - 1015.1 - - - - - - - - -
04/08:00am 26.8 ESE 9 10 1015.1 - - - - - - - - -
04/07:30am 26.9 E 10 12 1014.8 - - - - - - - - -
04/07:24am 26.8 E 10 - 1014.7 - - - - - - - - -
04/07:00am 26.6 ESE 10 12 1014.6 - - - - - - - - -
04/06:30am 26.7 E 10 12 1014.1 - - - - - - - - -
04/06:24am 26.6 E 10 - 1014.0 - - - - - - - - -
04/06:00am 26.5 E 11 13 1013.8 - - - - - - - - -
04/05:30am 26.5 ENE 10 12 1013.5 - - - - - - - - -
04/05:24am 26.5 ENE 11 - 1013.4 - - - - - - - - -
04/05:00am 26.5 E 11 13 1013.4 - - - - - - - - -
04/04:30am 26.6 E 11 13 1013.3 - - - - - - - - -
04/04:24am 26.3 E 11 - 1013.1 - - - - - - - - -
04/04:00am 26.5 E 12 14 1012.7 - - - - - - - - -
04/03:30am 26.3 E 12 13 1012.6 - - - - - - - - -
04/03:24am 26.6 E 12 - 1012.5 - - - - - - - - -
04/03:00am 26.4 E 12 13 1012.6 - - - - - - - - -
04/02:30am 26.2 E 12 14 1012.5 - - - - - - - - -
04/02:24am 26.7 E 12 - 1012.5 - - - - - - - - -
04/02:00am 26.5 E 13 14 1012.6 - - - - - - - - -
04/01:30am 26.5 E 12 14 1012.9 - - - - - - - - -
04/01:24am 26.4 E 13 - 1012.9 - - - - - - - - -
04/01:00am 26.5 E 12 13 1013.2 - - - - - - - - -
04/12:30am 26.6 E 11 14 1013.5 - - - - - - - - -
04/12:24am 26.5 ESE 12 - 1013.5 - - - - - - - - -
04/12:00am 26.6 ESE 12 13 1013.8 - - - - - - - - -
 
Date/Time
EST
Temp

°C
Wind Pressure Rain
since 9am
mm
Weather Cloud Vis
km
Sea
Height
m
Swell
Dir
 
Speed
knots
Gust
knots
hPa Trend Height
m
Period
s
Dir
03/11:30pm 26.5 ESE 11 14 1014.1 - - - - - - - - -
03/11:24pm 26.8 ESE 12 - 1014.1 - - - - - - - - -
03/11:00pm 26.6 ESE 12 14 1014.5 - - - - - - - - -
03/10:30pm 26.7 ESE 10 12 1014.9 - - - - - - - - -
03/10:24pm 26.9 ESE 10 - 1014.8 - - - - - - - - -
03/10:00pm 26.8 ESE 11 12 1014.9 - - - - - - - - -
03/09:30pm 26.9 SE 11 14 1014.8 - - - - - - - - -
03/09:24pm 26.7 SE 11 - 1014.6 - - - - - - - - -
03/09:00pm 26.9 SE 11 12 1014.8 - - - - - - - - -
03/08:30pm 26.6 SE 11 13 1014.7 - - - - - - - - -
03/08:24pm 26.9 SE 11 - 1014.6 - - - - - - - - -
03/08:00pm 27.0 SSE 10 12 1014.4 - - - - - - - - -
03/07:30pm 26.9 SSE 10 11 1014.0 - - - - - - - - -
03/07:24pm 26.8 SSE 10 - 1013.8 - - - - - - - - -

Other Formats:

Comma delimited format used in spreadsheet applications
http://www.bom.gov.au/fwo/IDQ60701/IDQ60701.94290.axf

JavaScript Object Notation format (JSON) in row-major order
http://www.bom.gov.au/fwo/IDQ60701/IDQ60701.94290.json